Regional Weather Roundup
Issued by NWS Binghamton, NY

Home | Current Version | Previous Version | Text Only | Print | Product List | Glossary On
Versions: 1 2 3 4 5 6 7 8 9 10 11 12 13 14 15 16 17 18 19 20 21 22 23 24 25 26 27 28 29 30 31 32 33 34 35 36 37 38 39 40 41 42 43 44
000
ASUS41 KBGM 221310
RWRBGM
RWRBGM
BINGHAMTON REGIONAL WEATHER ROUNDUP
NATIONAL WEATHER SERVICE BINGHAMTON NY
900 AM EDT WED OCT 22 2014

Note: "fair" indicates few or no clouds below 12,000 feet with no
significant weather and/or obstructions to visibility.

* = Station(s) that does not report precipitation, such as rain,
snow, etc, also no thunder or fog.

!NYZ009-015>018-022>025-036-037-044>046-055>057-062-221400
...CENTRAL NEW YORK...

CITY           SKY/WX    TMP DP  RH WIND       PRES   REMARKS
BINGHAMTON     CLOUDY    47  45  93 NE10      30.06R
CORTLAND       CLOUDY    45  45 100 NE7       30.11R
DANSVILLE      CLOUDY    46  44  93 N9        30.17R
ELMIRA         CLOUDY    47  46  97 NE9       30.10R
ITHACA         CLOUDY    46  45  97 N9        30.12R FOG
HAMILTON       CLOUDY    48  45  87 N8        30.11R
MONTICELLO     CLOUDY    48  46  93 N7        30.01R
NORWICH        CLOUDY    46  45  93 N5        30.10R
ONEONTA        CLOUDY    46  45  93 E10G21    30.07R
PENN YAN       CLOUDY    47  44  90 N6        30.14R FOG
ROME           CLOUDY    48  44  86 N7        30.13R
SIDNEY         CLOUDY    50  48  93 NE5       30.06S
SYRACUSE       CLOUDY    47  44  90 N7        30.14R
$$

!PAZ038>040-043-044-047-048-072-221400
...NORTHEAST PENNSYLVANIA...

CITY           SKY/WX    TMP DP  RH WIND       PRES   REMARKS
HAZLETON       CLOUDY    48  46  93 N9        30.00R
SCRANTON       CLOUDY    52  47  83 NE9       30.00R
TOWANDA*       CLOUDY    50  48  93 NW9       30.08R
$$
&&
KEY
WCI = WIND CHILL INDEX
VSB = VISIBILITY
HX  = HEAT INDEX
$$



USA.gov is the U.S. government's official web portal to all federal, state and local government web resources and services.